| time (UTC) | temp C | wind direction | speed KPH | gust KPH | rain 1hr cm | rain 24hr cm | rain mn cm | humidity % | barometer mb |
| 20260503022009 | 7 | 0.0 | 0.0 | 0.00 | 0.30 | 0.30 | 51 | 1011.3 | |
| 20260503021512 | 7 | 0.0 | 0.0 | 0.00 | 0.30 | 0.30 | 52 | 1011.3 | |
| 20260503021003 | 7 | 0.0 | 0.0 | 0.00 | 0.30 | 0.30 | 52 | 1011.4 | |
| 20260503020503 | 7 | 0.0 | 0.0 | 0.00 | 0.30 | 0.30 | 52 | 1011.3 | |
| 20260503020016 | 7 | 0.0 | 0.0 | 0.00 | 0.30 | 0.30 | 51 | 1011.3 | |
| 20260503015503 | 7 | 0.0 | 0.0 | 0.00 | 0.30 | 0.30 | 51 | 1011.2 | |
| 20260503015006 | 7 | 0.0 | 0.0 | 0.00 | 0.30 | 0.30 | 50 | 1011.1 | |
| 20260503014519 | 7 | 0.0 | 0.0 | 0.00 | 0.30 | 0.30 | 51 | 1011.2 | |
| 20260503014007 | 7 | 0.0 | 0.0 | 0.00 | 0.30 | 0.30 | 53 | 1011.1 | |
| 20260503013509 | 7 | 0.0 | 0.0 | 0.00 | 0.30 | 0.30 | 52 | 1011.1 | |
| 20260503013033 | 7 | 0.0 | 0.0 | 0.00 | 0.30 | 0.30 | 52 | 1011.2 | |
| 20260503012510 | 7 | 0.0 | 0.0 | 0.00 | 0.30 | 0.30 | 53 | 1011.2 | |
| 20260503012007 | 7 | 0.0 | 0.0 | 0.00 | 0.30 | 0.30 | 51 | 1011.3 | |
| 20260503011526 | 7 | 0.0 | 0.0 | 0.00 | 0.30 | 0.30 | 53 | 1011.2 | |
| 20260503011006 | 7 | 0.0 | 0.0 | 0.00 | 0.30 | 0.30 | 51 | 1011.0 | |
| 20260503010507 | 7 | 0.0 | 0.0 | 0.00 | 0.30 | 0.30 | 50 | 1011.1 | |
| 20260503010011 | 7 | 0.0 | 0.0 | 0.00 | 0.30 | 0.30 | 52 | 1011.1 | |
| 20260503005503 | 7 | 0.0 | 0.0 | 0.00 | 0.30 | 0.30 | 53 | 1011.2 | |
| 20260503005007 | 7 | 0.0 | 0.0 | 0.00 | 0.30 | 0.30 | 51 | 1011.0 | |
| 20260503004515 | 7 | 0.0 | 0.0 | 0.00 | 0.30 | 0.30 | 51 | 1011.0 | |
| 20260503004008 | 7 | 0.0 | 0.0 | 0.00 | 0.30 | 0.30 | 51 | 1010.9 | |
| 20260503003504 | 7 | 0.0 | 0.0 | 0.00 | 0.30 | 0.30 | 50 | 1010.8 | |
| 20260503003027 | 7 | 0.0 | 0.0 | 0.00 | 0.30 | 0.30 | 50 | 1010.8 | |
| 20260503002505 | 7 | 0.0 | 0.0 | 0.00 | 0.30 | 0.30 | 52 | 1010.8 | |
| 20260503002010 | 8 | 0.0 | 0.0 | 0.00 | 0.30 | 0.30 | 51 | 1010.8 | |
| 20260503001524 | 8 | 0.0 | 0.0 | 0.00 | 0.30 | 0.30 | 49 | 1010.7 | |
| 20260503001007 | 8 | 0.0 | 0.0 | 0.00 | 0.30 | 0.30 | 48 | 1010.7 | |
| 20260503000514 | 8 | 0.0 | 0.0 | 0.00 | 0.30 | 0.30 | 48 | 1010.6 | |
| 20260503000027 | 8 | 0.0 | 0.0 | 0.00 | 0.30 | 0.30 | 49 | 1010.4 | |
| 20260502235508 | 8 | 0.0 | 0.0 | 0.00 | 0.30 | 0.30 | 47 | 1010.3 | |
| 20260502235003 | 8 | 0.0 | 0.0 | 0.00 | 0.30 | 0.30 | 47 | 1010.2 | |
| 20260502234518 | 8 | 0.0 | 0.0 | 0.00 | 0.30 | 0.30 | 47 | 1010.3 | |
| 20260502234003 | 8 | 0.0 | 0.0 | 0.00 | 0.30 | 0.30 | 48 | 1010.4 | |
| 20260502233507 | 9 | 0.0 | 0.0 | 0.00 | 0.30 | 0.30 | 47 | 1010.3 | |
| 20260502233018 | 9 | 0.0 | 0.0 | 0.00 | 0.30 | 0.30 | 47 | 1010.2 | |
| 20260502232507 | 9 | 0.0 | 0.0 | 0.00 | 0.30 | 0.30 | 46 | 1010.2 | |
| 20260502232007 | 10 | 0.0 | 0.0 | 0.00 | 0.30 | 0.30 | 47 | 1010.1 | |
| 20260502231527 | 10 | 0.0 | 0.0 | 0.00 | 0.30 | 0.30 | 47 | 1010.1 | |
| 20260502231009 | 10 | 0.0 | 0.0 | 0.00 | 0.30 | 0.30 | 44 | 1010.0 | |
| 20260502230510 | 10 | 0.0 | 0.0 | 0.00 | 0.30 | 0.30 | 45 | 1010.0 | |
| 20260502230027 | 11 | 0.0 | 0.0 | 0.00 | 0.30 | 0.30 | 43 | 1009.9 | |
| 20260502225506 | 11 | 0.0 | 0.0 | 0.00 | 0.30 | 0.30 | 44 | 1009.9 | |
| 20260502225006 | 11 | 0.0 | 0.0 | 0.00 | 0.30 | 0.30 | 45 | 1009.9 | |
| 20260502224530 | 11 | 0.0 | 0.0 | 0.00 | 0.30 | 0.30 | 49 | 1009.9 | |
| 20260502224011 | 10 | 0.0 | 0.0 | 0.00 | 0.30 | 0.30 | 47 | 1009.8 | |
| 20260502223503 | 11 | 0.0 | 0.0 | 0.00 | 0.30 | 0.30 | 48 | 1009.7 | |
| 20260502223018 | 11 | 0.0 | 0.0 | 0.00 | 0.30 | 0.30 | 47 | 1009.8 | |
| 20260502222507 | 10 | 0.0 | 0.0 | 0.00 | 0.30 | 0.30 | 49 | 1009.7 | |
| 20260502222008 | 10 | 0.0 | 0.0 | 0.00 | 0.30 | 0.30 | 47 | 1009.7 | |
| 20260502221519 | 10 | 0.0 | 0.0 | 0.00 | 0.30 | 0.30 | 48 | 1009.7 | |
| 20260502221008 | 11 | 0.0 | 0.0 | 0.00 | 0.30 | 0.30 | 48 | 1009.7 | |
| 20260502220511 | 11 | 0.0 | 0.0 | 0.00 | 0.30 | 0.30 | 51 | 1009.6 | |
| 20260502220026 | 11 | 0.0 | 0.0 | 0.00 | 0.30 | 0.30 | 53 | 1009.6 | |
| 20260502215513 | 11 | 0.0 | 0.0 | 0.00 | 0.30 | 0.30 | 51 | 1009.6 | |
| 20260502215009 | 11 | 0.0 | 0.0 | 0.00 | 0.30 | 0.30 | 51 | 1009.6 | |
| 20260502214525 | 11 | 0.0 | 0.0 | 0.00 | 0.30 | 0.30 | 50 | 1009.6 | |
| 20260502214006 | 11 | 0.0 | 0.0 | 0.00 | 0.30 | 0.30 | 51 | 1009.7 | |
| 20260502213507 | 11 | 0.0 | 0.0 | 0.00 | 0.30 | 0.30 | 50 | 1009.7 | |
| 20260502213038 | 11 | 0.0 | 0.0 | 0.00 | 0.30 | 0.30 | 51 | 1009.7 | |
| 20260502212503 | 11 | 0.0 | 0.0 | 0.00 | 0.30 | 0.30 | 51 | 1009.6 | |
| 20260502212008 | 11 | 0.0 | 0.0 | 0.00 | 0.30 | 0.30 | 53 | 1009.5 | |
| 20260502211522 | 11 | 0.0 | 0.0 | 0.00 | 0.30 | 0.30 | 52 | 1009.5 | |
| 20260502211007 | 11 | 0.0 | 0.0 | 0.00 | 0.30 | 0.30 | 52 | 1009.4 | |
| 20260502210506 | 11 | 0.0 | 0.0 | 0.00 | 0.30 | 0.30 | 53 | 1009.4 | |
| 20260502210022 | 11 | 0.0 | 0.0 | 0.00 | 0.30 | 0.30 | 53 | 1009.3 | |
| 20260502205511 | 11 | 0.0 | 0.0 | 0.00 | 0.30 | 0.30 | 57 | 1009.3 | |
| 20260502205009 | 11 | 0.0 | 0.0 | 0.00 | 0.30 | 0.30 | 58 | 1009.3 | |
| 20260502204528 | 11 | 0.0 | 0.0 | 0.00 | 0.30 | 0.30 | 57 | 1009.4 | |
| 20260502204014 | 11 | 0.0 | 0.0 | 0.00 | 0.30 | 0.30 | 56 | 1009.3 | |
| 20260502203509 | 12 | 0.0 | 0.0 | 0.00 | 0.30 | 0.30 | 53 | 1009.2 | |
| 20260502203030 | 12 | 0.0 | 0.0 | 0.00 | 0.30 | 0.30 | 55 | 1009.3 | |
| 20260502202511 | 12 | 0.0 | 0.0 | 0.00 | 0.30 | 0.30 | 56 | 1009.4 | |
| 20260502202006 | 12 | 0.0 | 0.0 | 0.00 | 0.30 | 0.30 | 54 | 1009.5 | |
| 20260502201532 | 12 | 0.0 | 0.0 | 0.00 | 0.30 | 0.30 | 52 | 1009.5 | |
| 20260502201008 | 12 | 0.0 | 0.0 | 0.00 | 0.30 | 0.30 | 54 | 1009.6 | |
| 20260502200507 | 12 | 0.0 | 0.0 | 0.00 | 0.30 | 0.30 | 55 | 1009.6 | |
| 20260502200003 | 12 | 0.0 | 0.0 | 0.00 | 0.30 | 0.30 | 55 | 1009.6 | |
| 20260502195503 | 12 | 0.0 | 0.0 | 0.00 | 0.30 | 0.30 | 52 | 1009.7 | |
| 20260502195002 | 13 | 0.0 | 0.0 | 0.00 | 0.30 | 0.30 | 54 | 1009.9 | |
| 20260502194504 | 12 | 0.0 | 0.0 | 0.00 | 0.30 | 0.30 | 54 | 1009.9 | |
| 20260502194004 | 12 | 0.0 | 0.0 | 0.00 | 0.30 | 0.30 | 53 | 1010.0 | |
| 20260502193503 | 12 | 0.0 | 0.0 | 0.00 | 0.30 | 0.30 | 53 | 1010.2 | |
| 20260502193012 | 12 | 0.0 | 0.0 | 0.00 | 0.30 | 0.30 | 52 | 1010.3 | |
| 20260502192503 | 12 | 0.0 | 0.0 | 0.00 | 0.30 | 0.30 | 57 | 1010.4 | |
| 20260502192003 | 12 | 0.0 | 0.0 | 0.00 | 0.30 | 0.30 | 56 | 1010.4 | |
| 20260502191515 | 12 | 0.0 | 0.0 | 0.00 | 0.30 | 0.30 | 54 | 1010.4 | |
| 20260502191007 | 13 | 0.0 | 0.0 | 0.00 | 0.30 | 0.30 | 54 | 1010.4 | |
| 20260502190507 | 12 | 0.0 | 0.0 | 0.00 | 0.30 | 0.30 | 55 | 1010.4 | |
| 20260502190021 | 12 | 0.0 | 0.0 | 0.00 | 0.30 | 0.30 | 56 | 1010.6 | |
| 20260502185508 | 11 | 0.0 | 0.0 | 0.00 | 0.30 | 0.30 | 57 | 1010.7 | |
| 20260502185011 | 11 | 0.0 | 0.0 | 0.00 | 0.30 | 0.30 | 60 | 1010.8 | |
| 20260502184506 | 11 | 0.0 | 0.0 | 0.00 | 0.30 | 0.30 | 58 | 1010.8 | |
| 20260502184003 | 11 | 0.0 | 0.0 | 0.00 | 0.30 | 0.30 | 57 | 1010.9 | |
| 20260502183503 | 12 | 0.0 | 0.0 | 0.00 | 0.30 | 0.30 | 58 | 1010.9 | |
| 20260502183010 | 11 | 0.0 | 0.0 | 0.00 | 0.30 | 0.30 | 59 | 1010.9 | |
| 20260502182504 | 11 | 0.0 | 0.0 | 0.00 | 0.30 | 0.30 | 58 | 1010.9 | |
| 20260502182006 | 11 | 0.0 | 0.0 | 0.00 | 0.30 | 0.30 | 58 | 1010.8 | |
| 20260502181514 | 11 | 0.0 | 0.0 | 0.00 | 0.30 | 0.30 | 61 | 1010.8 | |
| 20260502181006 | 11 | 0.0 | 0.0 | 0.00 | 0.30 | 0.30 | 59 | 1010.9 | |
| 20260502180507 | 11 | 0.0 | 0.0 | 0.00 | 0.30 | 0.30 | 65 | 1010.8 | |
| 20260502170509 | 8 | 0.0 | 0.0 | 0.00 | 0.30 | 0.30 | 71 | 1011.4 | |
| 20260502164006 | 9 | 0.0 | 0.0 | 0.00 | 0.30 | 0.30 | 72 | 1011.5 | |
| 20260502163506 | 9 | 0.0 | 0.0 | 0.00 | 0.30 | 0.30 | 74 | 1011.4 | |
| 20260502163025 | 8 | 0.0 | 0.0 | 0.00 | 0.30 | 0.30 | 72 | 1011.5 | |
| 20260502162504 | 9 | 0.0 | 0.0 | 0.00 | 0.30 | 0.30 | 75 | 1011.5 | |
| 20260502162001 | 9 | 0.0 | 0.0 | 0.00 | 0.30 | 0.30 | 75 | 1011.6 | |
| 20260502161510 | 8 | 0.0 | 0.0 | 0.00 | 0.30 | 0.30 | 75 | 1011.5 | |
| 20260502161003 | 9 | 0.0 | 0.0 | 0.00 | 0.30 | 0.30 | 74 | 1011.6 | |
| 20260502160505 | 9 | 0.0 | 0.0 | 0.00 | 0.30 | 0.30 | 75 | 1011.4 | |
| 20260502152014 | 8 | 0.0 | 0.0 | 0.00 | 0.30 | 0.30 | 79 | 1011.5 | |
| 20260502151528 | 8 | 0.0 | 0.0 | 0.00 | 0.30 | 0.30 | 80 | 1011.6 | |
| 20260502151002 | 8 | 0.0 | 0.0 | 0.00 | 0.30 | 0.30 | 79 | 1011.3 | |
| 20260502150505 | 8 | 0.0 | 0.0 | 0.00 | 0.30 | 0.30 | 78 | 1011.3 | |
| 20260502130510 | 9 | 0.0 | 0.0 | 0.00 | 0.30 | 0.30 | 82 | 1011.4 | |
| 20260502123507 | 8 | 0.0 | 0.0 | 0.00 | 0.30 | 0.30 | 86 | 1011.5 | |
| 20260502123021 | 8 | 0.0 | 0.0 | 0.00 | 0.30 | 0.30 | 89 | 1011.6 | |
| 20260502122511 | 7 | 0.0 | 0.0 | 0.00 | 0.30 | 0.30 | 88 | 1011.6 | |
| 20260502122010 | 7 | 0.0 | 0.0 | 0.00 | 0.30 | 0.30 | 89 | 1011.6 | |
| 20260502121529 | 7 | 0.0 | 0.0 | 0.00 | 0.30 | 0.30 | 89 | 1011.5 | |
| 20260502121008 | 7 | 0.0 | 0.0 | 0.00 | 0.30 | 0.30 | 89 | 1011.5 | |
| 20260502120507 | 7 | 0.0 | 0.0 | 0.00 | 0.30 | 0.30 | 89 | 1011.6 | |
| 20260502115510 | 7 | 0.0 | 0.0 | 0.00 | 0.30 | 0.30 | 89 | 1011.5 | |
| 20260502115007 | 7 | 0.0 | 0.0 | 0.00 | 0.30 | 0.30 | 89 | 1011.6 | |
| 20260502114528 | 7 | 0.0 | 0.0 | 0.03 | 0.30 | 0.30 | 89 | 1011.6 | |
| 20260502114008 | 7 | 0.0 | 0.0 | 0.03 | 0.30 | 0.30 | 89 | 1011.6 | |
| 20260502113504 | 7 | 0.0 | 0.0 | 0.08 | 0.30 | 0.30 | 89 | 1011.5 | |
| 20260502113017 | 7 | 0.0 | 0.0 | 0.08 | 0.30 | 0.30 | 89 | 1011.4 | |
| 20260502112504 | 7 | 0.0 | 0.0 | 0.10 | 0.30 | 0.30 | 89 | 1011.4 | |
| 20260502112007 | 7 | 0.0 | 0.0 | 0.15 | 0.30 | 0.30 | 89 | 1011.4 | |
| 20260502111523 | 7 | 0.0 | 0.0 | 0.18 | 0.30 | 0.30 | 89 | 1011.4 | |
| 20260502111008 | 6 | 0.0 | 0.0 | 0.18 | 0.30 | 0.30 | 89 | 1011.4 | |
| 20260502110507 | 7 | 0.0 | 0.0 | 0.18 | 0.30 | 0.30 | 89 | 1011.4 | |
| 20260502110004 | 7 | 0.0 | 0.0 | 0.18 | 0.30 | 0.30 | 89 | 1011.4 | |
| 20260502105505 | 6 | 0.0 | 0.0 | 0.18 | 0.30 | 0.30 | 89 | 1011.5 | |
| 20260502105002 | 6 | 0.0 | 0.0 | 0.18 | 0.30 | 0.30 | 89 | 1011.6 | |
| 20260502104508 | 6 | 0.0 | 0.0 | 0.15 | 0.28 | 0.28 | 89 | 1011.6 | |
| 20260502104003 | 6 | 0.0 | 0.0 | 0.18 | 0.28 | 0.28 | 89 | 1011.8 | |
| 20260502103504 | 6 | 0.0 | 0.0 | 0.15 | 0.23 | 0.23 | 89 | 1011.8 | |
| 20260502103012 | 6 | 0.0 | 0.0 | 0.18 | 0.23 | 0.23 | 89 | 1011.6 | |
| 20260502102505 | 6 | 0.0 | 0.0 | 0.15 | 0.20 | 0.20 | 89 | 1011.6 | |
| 20260502102003 | 6 | 0.0 | 0.0 | 0.10 | 0.15 | 0.15 | 89 | 1011.5 | |
| 20260502101509 | 6 | 0.0 | 0.0 | 0.08 | 0.13 | 0.13 | 89 | 1011.4 | |
| 20260502101003 | 6 | 0.0 | 0.0 | 0.08 | 0.13 | 0.13 | 89 | 1011.1 | |
| 20260502100502 | 6 | 0.0 | 0.0 | 0.08 | 0.13 | 0.13 | 89 | 1011.1 | |
| 20260502091515 | 7 | 0.0 | 0.0 | 0.03 | 0.05 | 0.05 | 86 | 1011.0 | |
| 20260502091005 | 7 | 0.0 | 0.0 | 0.03 | 0.05 | 0.05 | 86 | 1011.0 | |
| 20260502090503 | 7 | 0.0 | 0.0 | 0.03 | 0.05 | 0.05 | 86 | 1010.9 | |
| 20260502071514 | 7 | 0.0 | 0.0 | 0.03 | 0.03 | 0.03 | 84 | 1011.4 | |
| 20260502071005 | 7 | 0.0 | 0.0 | 0.00 | 0.00 | 0.00 | 84 | 1011.3 | |
| 20260502070503 | 7 | 0.0 | 0.0 | 0.00 | 0.00 | 0.00 | 84 | 1011.1 | |
| 20260502070012 | 7 | 0.0 | 0.0 | 0.00 | 0.00 | 0.00 | 84 | 1010.9 | |
| 20260502065503 | 7 | 0.0 | 0.0 | 0.00 | 0.00 | 0.00 | 83 | 1010.9 | |
| 20260502065007 | 7 | 0.0 | 0.0 | 0.00 | 0.00 | 0.00 | 83 | 1011.0 | |
| 20260502064511 | 7 | 0.0 | 0.0 | 0.00 | 0.00 | 0.00 | 83 | 1011.3 | |
| 20260502064007 | 7 | 0.0 | 0.0 | 0.00 | 0.00 | 0.00 | 83 | 1011.3 | |
| 20260502063506 | 7 | 0.0 | 0.0 | 0.00 | 0.00 | 0.00 | 82 | 1011.2 | |
| 20260502063012 | 8 | 0.0 | 0.0 | 0.00 | 0.00 | 0.00 | 81 | 1011.3 | |
| 20260502062503 | 8 | 0.0 | 0.0 | 0.00 | 0.00 | 0.00 | 80 | 1011.2 | |
| 20260502062004 | 8 | 0.0 | 0.0 | 0.00 | 0.00 | 0.00 | 79 | 1011.1 | |
| 20260502061513 | 8 | 0.0 | 0.0 | 0.00 | 0.00 | 0.00 | 78 | 1011.2 | |
| 20260502061005 | 8 | 0.0 | 0.0 | 0.00 | 0.00 | 0.00 | 78 | 1011.3 | |
| 20260502060506 | 8 | 0.0 | 0.0 | 0.00 | 0.00 | 0.00 | 77 | 1011.6 | |
| 20260502060027 | 8 | 0.0 | 0.0 | 0.00 | 0.00 | 0.00 | 76 | 1011.4 | |
| 20260502055506 | 8 | 0.0 | 0.0 | 0.00 | 0.00 | 0.00 | 75 | 1011.0 | |
| 20260502055008 | 8 | 0.0 | 0.0 | 0.00 | 0.00 | 0.00 | 76 | 1011.0 | |
| 20260502054519 | 8 | 0.0 | 0.0 | 0.00 | 0.00 | 0.00 | 76 | 1011.2 | |
| 20260502054003 | 8 | 0.0 | 0.0 | 0.00 | 0.00 | 0.00 | 77 | 1011.2 | |
| 20260502053505 | 8 | 0.0 | 0.0 | 0.00 | 0.00 | 0.00 | 78 | 1011.0 | |
| 20260502053013 | 8 | 0.0 | 0.0 | 0.00 | 0.00 | 0.00 | 76 | 1010.9 | |
| 20260502052505 | 8 | 0.0 | 0.0 | 0.00 | 0.00 | 0.00 | 76 | 1011.0 | |
| 20260502052003 | 8 | 0.0 | 0.0 | 0.00 | 0.00 | 0.00 | 77 | 1011.1 | |
| 20260502051506 | 8 | 0.0 | 0.0 | 0.00 | 0.00 | 0.00 | 75 | 1011.0 | |
| 20260502051006 | 8 | 0.0 | 0.0 | 0.00 | 0.00 | 0.00 | 76 | 1011.0 | |
| 20260502050504 | 8 | 0.0 | 0.0 | 0.00 | 0.00 | 0.00 | 77 | 1011.1 | |
| 20260502050019 | 8 | 0.0 | 0.0 | 0.00 | 0.00 | 0.00 | 76 | 1011.4 | |
| 20260502045506 | 8 | 0.0 | 0.0 | 0.00 | 0.00 | 0.00 | 73 | 1011.5 | |
| 20260502045005 | 8 | 0.0 | 0.0 | 0.00 | 0.00 | 0.00 | 74 | 1011.5 | |
| 20260502044517 | 8 | 0.0 | 0.0 | 0.00 | 0.00 | 0.00 | 73 | 1011.6 | |
| 20260502044005 | 8 | 0.0 | 0.0 | 0.00 | 0.00 | 0.00 | 73 | 1011.6 | |
| 20260502043510 | 8 | 0.0 | 0.0 | 0.00 | 0.00 | 0.00 | 72 | 1011.6 | |
| 20260502043017 | 8 | 0.0 | 0.0 | 0.00 | 0.00 | 0.00 | 73 | 1011.6 | |
| 20260502042508 | 9 | 0.0 | 0.0 | 0.00 | 0.00 | 0.00 | 72 | 1011.5 | |
| 20260502042007 | 9 | 0.0 | 0.0 | 0.00 | 0.00 | 0.00 | 68 | 1011.5 | |
| 20260502041531 | 9 | 0.0 | 0.0 | 0.00 | 0.00 | 0.00 | 66 | 1011.4 | |
| 20260502041004 | 9 | 0.0 | 0.0 | 0.00 | 0.00 | 0.00 | 66 | 1011.4 | |
| 20260502040503 | 9 | 0.0 | 0.0 | 0.00 | 0.00 | 0.00 | 66 | 1011.3 | |
| 20260502040019 | 9 | 0.0 | 0.0 | 0.00 | 0.00 | 0.00 | 66 | 1011.3 | |
| 20260502035503 | 9 | 0.0 | 0.0 | 0.00 | 0.00 | 0.00 | 66 | 1011.2 | |
| 20260502035006 | 9 | 0.0 | 0.0 | 0.00 | 0.00 | 0.00 | 66 | 1011.2 | |
| 20260502034518 | 9 | 0.0 | 0.0 | 0.00 | 0.00 | 0.00 | 67 | 1011.2 | |
| 20260502034007 | 9 | 0.0 | 0.0 | 0.00 | 0.00 | 0.00 | 67 | 1011.3 | |
| 20260502033503 | 9 | 0.0 | 0.0 | 0.00 | 0.00 | 0.00 | 66 | 1011.3 | |
| 20260502033011 | 9 | 0.0 | 0.0 | 0.00 | 0.00 | 0.00 | 66 | 1011.4 | |
| 20260502032503 | 9 | 0.0 | 0.0 | 0.00 | 0.00 | 0.00 | 65 | 1011.3 | |
| 20260502032003 | 9 | 0.0 | 0.0 | 0.00 | 0.00 | 0.00 | 64 | 1011.4 | |
| 20260502031505 | 9 | 0.0 | 0.0 | 0.00 | 0.00 | 0.00 | 63 | 1011.4 | |
| 20260502031003 | 9 | 0.0 | 0.0 | 0.00 | 0.00 | 0.00 | 62 | 1011.5 | |
| 20260502030502 | 10 | 0.0 | 0.0 | 0.00 | 0.00 | 0.00 | 62 | 1011.5 | |
| 20260502030010 | 10 | 0.0 | 0.0 | 0.00 | 0.00 | 0.00 | 60 | 1011.5 | |
| 20260502025503 | 10 | 0.0 | 0.0 | 0.00 | 0.00 | 0.00 | 59 | 1011.6 | |
| 20260502025007 | 10 | 0.0 | 0.0 | 0.00 | 0.00 | 0.00 | 58 | 1011.6 | |
| 20260502024511 | 10 | 0.0 | 0.0 | 0.00 | 0.00 | 0.00 | 57 | 1011.7 | |
| 20260502024003 | 10 | 0.0 | 0.0 | 0.00 | 0.00 | 0.00 | 55 | 1011.6 | |
| 20260502023503 | 10 | 0.0 | 0.0 | 0.00 | 0.00 | 0.00 | 54 | 1011.6 | |
| 20260502023026 | 10 | 0.0 | 0.0 | 0.00 | 0.00 | 0.00 | 53 | 1011.6 | |
| 20260502022504 | 10 | 0.0 | 0.0 | 0.00 | 0.00 | 0.00 | 52 | 1011.7 |